Regional Weather Roundup
Issued by NWS Cleveland, OH

Home | Current Version | Previous Version | Text Only | Print | Product List | Glossary Off
Versions: 1 2 3 4 5 6 7 8 9 10 11 12 13 14 15 16 17 18 19 20 21 22 23 24 25 26 27 28 29 30 31 32 33 34 35 36 37 38 39 40 41 42 43 44 45 46 47 48 49 50

000
ASUS41 KCLE 282302
RWRCLE
OHIO REGIONAL WEATHER ROUNDUP
NATIONAL WEATHER SERVICE CLEVELAND, OH
700 PM EDT TUE JUL 28 2015

NOTE: "FAIR" INDICATES FEW OR NO CLOUDS BELOW 12,000 FEET WITH NO
SIGNIFICANT WEATHER AND/OR OBSTRUCTIONS TO VISIBILITY.

OHZ001>008-015>018-024>027-034-035-043-044-290000-
   NORTHWEST OHIO

CITY           SKY/WX    TMP DP  RH WIND       PRES   REMARKS
DEFIANCE       MOSUNNY   88  64  44 E7        29.95F
FINDLAY        PTSUNNY   89  60  37 E5        29.95F
TOLEDO EXPRESS PTSUNNY   84  64  50 NE8       29.95F
TOLEDO EXEC    PTSUNNY   84  62  47 E6        29.96F
LIMA           PTSUNNY   86  67  52 E3        29.96F
$$

OHZ009>014-019>023-028>033-038-089-290000-
   NORTHEAST OHIO

CITY           SKY/WX    TMP DP  RH WIND       PRES   REMARKS
CLE-HOPKINS    PTSUNNY   84  61  45 N9        29.99F
CLE-LAKEFRONT  MOSUNNY   81  69  67 NE8       29.96F
CUY CO. ARPT   PTSUNNY   84  64  51 NE12      29.99F
LORAIN-ELYRIA  MOSUNNY   82  64  54 NE8       29.98F
ASHTABULA      SUNNY     84  61  45 NE7       30.00F
AKRON-CANTON   PTSUNNY   86  60  41 E7        29.99F
WOOSTER        MOSUNNY   84  64  50 E3        29.98F
MANSFIELD      MOSUNNY   84  65  52 NE3       29.99F
YOUNGSTOWN     PTSUNNY   87  58  37 NE6       29.99F
$$

OHZ042-051>053-060>062-070>072-077>081-290000-
  SOUTHWEST OHIO

CITY           SKY/WX    TMP DP  RH WIND       PRES   REMARKS
CINC-COVINGTON MOSUNNY   90  71  53 N7        29.95F HX  96
CINC-LUNKEN    PTSUNNY   89  75  63 NE8       29.93F HX  99
HAMILTON       MOSUNNY   88  73  61 N3        29.95S HX  95
DAYTON         MOSUNNY   86  70  58 E5        29.97F HX  90
WRIGHT-PAT AFB SUNNY     88  71  57 N3        29.95F HX  93
DAYTON GENERAL MOSUNNY   85  70  60 E5        29.96F
WILMINGTON     SUNNY     85  71  63 NE5       29.96F HX  90
$$

OHZ036-037-039>041-045>050-054>059-063>069-073>076-082>088-290000-
  CENTRAL AND SOUTHEAST OHIO

CITY           SKY/WX    TMP DP  RH WIND       PRES   REMARKS
COLUMBUS       PTSUNNY   86  70  58 NE3       29.95F HX  90
OSU AIRPORT    PTSUNNY   85  70  60 E5        29.96F
BOLTON FIELD   CLOUDY    75  73  94 CALM      29.97F
RICKENBACK AFB NOT AVBL
NEWARK         PTSUNNY   87  68  52 CALM      29.96S HX  90
MARION         MOSUNNY   87  66  49 NE3       29.97F
LANCASTER      MOSUNNY   84  73  69 NE5       29.96S HX  90
ZANESVILLE     MOSUNNY   87  67  51 NE5       29.97S HX  90
NEW PHILLY     MOSUNNY   86  67  52 N3        29.98S
$$



USA.gov is the U.S. government's official web portal to all federal, state and local government web resources and services.